Location: Arborea
(39.7744°N, 8.5819°E)
Time: 01:18:02
(UTC+00:00)

Cosmos 1000 Rocket - Pass Details

Date: 12 October 2023
Orbit: 952 x 993 km, 82.9° (Epoch: 03 December)

Event Time Altitude Azimuth Distance (km) Brightness Sun altitude
Rises 20:20:14 0° 220° (SW) 3,694 7.7 -39.9°
Reaches altitude 10° 20:23:12 10° 233° (SW) 2,751 7.0 -40.4°
Maximum altitude 20:28:20 26° 288° (WNW) 1,859 6.4 -41.3°
Drops below altitude 10° 20:33:30 10° 343° (NNW) 2,759 7.3 -42.1°
Sets 20:36:31 0° 356° (N) 3,708 7.9 -42.6°
